Two Harbors, MN

4:29 AM CDT on April 29, 2017 (GMT -0500)
Helgeson

Weather History for KTWM - August, 2014

Change the Weather History Date:

Tuesday, August 19, 2014

  Actual Average Record
Temperature  
Mean Temperature 62 °F -  
Max Temperature 68 °F 73 °F 88 °F (1955)
Min Temperature 57 °F 54 °F 39 °F (2004)
Degree Days  
Heating Degree Days 2    
Growing Degree Days 12 (Base 50)    
Moisture  
Dew Point 56 °F    
Average Humidity 83    
Maximum Humidity 88    
Minimum Humidity 73    
Precipitation  
Precipitation 0.19 in - - ()
Sea Level Pressure  
Sea Level Pressure 29.71 in    
Wind  
Wind Speed 1 mph (East)    
Max Wind Speed 8 mph    
Max Gust Speed -    
Visibility 8 miles    
Events Rain    
Averages and records for this station are not official NWS values.
T = Trace of Precipitation, MM = Missing Value Source: NWS Daily Summary

Daily Weather History Graph

Daily Weather History Graph

Search for Another Location

Airport or City:

Trip Planner

Search our weather history database for the weather conditions in past years. The results will help you decide how hot, cold, wet, or windy it might be!

Date:

Astronomy

Aug. 19, 2014 Rise Set
Actual Time 6:09 AM CDT 8:10 PM CDT
Civil Twilight 5:36 AM CDT 8:43 PM CDT
Nautical Twilight 4:55 AM CDT 9:24 PM CDT
Astronomical Twilight 4:10 AM CDT 10:09 PM CDT
Moon 12:55 AM CDT (8/19) 4:14 PM CDT (8/19)
Length of Visible Light 15h 07m
Length of Day
14h 01m
Waning Crescent, 29% of the Moon is Illuminated
Aug 19
Waning Crescent
Aug 25
New
Sep 2
First Quarter
Sep 8
Full
Sep 15
Last Quarter

Hourly Weather History & Observations

Time (CDT) Temp. Dew Point Humidity Pressure Visibility Wind Dir Wind Speed Gust Speed Precip Events Conditions
12:14 AM 57.2 °F 51.8 °F 82% 29.67 in 7.0 mi Calm Calm - N/A   Overcast
12:34 AM 57.2 °F 51.8 °F 82% 29.66 in 7.0 mi NNE 3.5 mph - N/A   Overcast
12:54 AM 57.2 °F 51.8 °F 82% 29.67 in 7.0 mi Calm Calm - N/A   Overcast
1:14 AM 57.2 °F 51.8 °F 82% 29.66 in 7.0 mi Calm Calm - N/A   Overcast
1:34 AM 57.2 °F 51.8 °F 82% 29.65 in 5.0 mi Calm Calm - N/A   Haze
1:55 AM 57.2 °F 51.8 °F 82% 29.64 in 7.0 mi Calm Calm - N/A   Mostly Cloudy
2:14 AM 57.2 °F 51.8 °F 82% 29.64 in 7.0 mi Calm Calm - N/A   Overcast
2:34 AM 57.2 °F 51.8 °F 82% 29.64 in 7.0 mi Calm Calm - N/A   Overcast
2:54 AM 57.2 °F 51.8 °F 82% 29.64 in 10.0 mi Calm Calm - N/A   Overcast
3:14 AM 57.2 °F 51.8 °F 82% 29.64 in 5.0 mi Calm Calm - N/A   Haze
3:34 AM 57.2 °F 51.8 °F 82% 29.65 in 5.0 mi Calm Calm - N/A   Haze
3:54 AM 57.2 °F 51.8 °F 82% 29.65 in 5.0 mi Calm Calm - N/A   Haze
4:14 AM 57.2 °F 51.8 °F 82% 29.65 in 7.0 mi Calm Calm - N/A   Overcast
4:34 AM 57.2 °F 51.8 °F 82% 29.65 in 7.0 mi Calm Calm - N/A   Overcast
4:54 AM 57.2 °F 51.8 °F 82% 29.65 in 7.0 mi Calm Calm - N/A   Overcast
5:14 AM 57.2 °F 53.6 °F 88% 29.65 in 10.0 mi Calm Calm - N/A   Overcast
5:34 AM 57.2 °F 53.6 °F 88% 29.65 in 10.0 mi Calm Calm - N/A   Overcast
5:54 AM 57.2 °F 53.6 °F 88% 29.66 in 10.0 mi Calm Calm - N/A   Overcast
6:14 AM 57.2 °F 53.6 °F 88% 29.67 in 10.0 mi Calm Calm - N/A   Overcast
6:34 AM 57.2 °F 53.6 °F 88% 29.67 in 10.0 mi Calm Calm - N/A   Overcast
6:54 AM 57.2 °F 53.6 °F 88% 29.67 in 2.0 mi Calm Calm - 0.05 in Rain Rain
7:14 AM 57.2 °F 53.6 °F 88% 29.67 in 4.0 mi Calm Calm - 0.03 in   Drizzle
7:34 AM 57.2 °F 53.6 °F 88% 29.67 in 3.0 mi Calm Calm - 0.03 in   Light Drizzle
7:54 AM 59.0 °F 53.6 °F 82% 29.67 in 7.0 mi Calm Calm - 0.03 in   Overcast
8:14 AM 60.8 °F 55.4 °F 82% 29.68 in 10.0 mi Calm Calm - N/A   Overcast
8:34 AM 60.8 °F 55.4 °F 82% 29.68 in 10.0 mi Calm Calm - N/A   Light Drizzle
8:54 AM 60.8 °F 55.4 °F 82% 29.69 in 10.0 mi SE 3.5 mph - N/A   Overcast
9:14 AM 62.6 °F 57.2 °F 82% 29.69 in 7.0 mi Calm Calm - N/A   Overcast
9:34 AM 62.6 °F 57.2 °F 82% 29.68 in 10.0 mi Calm Calm - N/A   Overcast
9:54 AM 64.4 °F 59.0 °F 83% 29.68 in 10.0 mi Calm Calm - N/A   Overcast
10:14 AM 66.2 °F 60.8 °F 83% 29.68 in 10.0 mi Calm Calm - N/A   Mostly Cloudy
10:34 AM 66.2 °F 60.8 °F 83% 29.68 in 10.0 mi Calm Calm - N/A   Mostly Cloudy
10:54 AM 66.2 °F 59.0 °F 78% 29.69 in 7.0 mi NNE 3.5 mph - N/A   Overcast
11:15 AM 66.2 °F 59.0 °F 78% 29.70 in 10.0 mi SE 3.5 mph - N/A   Overcast
11:34 AM 62.6 °F 57.2 °F 82% 29.70 in 10.0 mi South 3.5 mph - N/A   Overcast
11:54 AM 64.4 °F 60.8 °F 88% 29.70 in 7.0 mi SSE 4.6 mph - N/A   Overcast
12:15 PM 64.4 °F 60.8 °F 88% 29.70 in 10.0 mi SE 5.8 mph - N/A   Overcast
12:34 PM 64.4 °F 59.0 °F 83% 29.70 in 5.0 mi SSE 3.5 mph - N/A   Drizzle
12:54 PM 64.4 °F 59.0 °F 83% 29.71 in 5.0 mi SSE 4.6 mph - N/A   Haze
1:15 PM 62.6 °F 57.2 °F 82% 29.71 in 5.0 mi SE 3.5 mph - 0.01 in Rain Light Rain
1:34 PM 62.6 °F 57.2 °F 82% 29.72 in 3.0 mi ESE 4.6 mph - 0.09 in Rain Rain
1:54 PM 62.6 °F 57.2 °F 82% 29.72 in 10.0 mi Calm Calm - 0.10 in   Overcast
2:14 PM 62.6 °F 57.2 °F 82% 29.72 in 10.0 mi Calm Calm - N/A   Overcast
2:34 PM 64.4 °F 60.8 °F 88% 29.72 in 10.0 mi East 3.5 mph - N/A   Overcast
2:54 PM 64.4 °F 60.8 °F 88% 29.72 in 10.0 mi East 4.6 mph - N/A   Overcast
3:14 PM 62.6 °F 57.2 °F 82% 29.72 in 10.0 mi East 5.8 mph - N/A   Overcast
3:34 PM 64.4 °F 60.8 °F 88% 29.72 in 10.0 mi East 3.5 mph - N/A   Mostly Cloudy
3:54 PM 64.4 °F 60.8 °F 88% 29.72 in 10.0 mi Calm Calm - N/A   Overcast
4:14 PM 64.4 °F 60.8 °F 88% 29.73 in 10.0 mi Calm Calm - N/A   Overcast
4:34 PM 64.4 °F 60.8 °F 88% 29.73 in 10.0 mi Calm Calm - N/A   Overcast
4:54 PM 64.4 °F 60.8 °F 88% 29.73 in 10.0 mi Calm Calm - N/A   Overcast
5:34 PM 64.4 °F 59.0 °F 83% 29.74 in 10.0 mi Calm Calm - N/A   Overcast
5:54 PM 66.2 °F 59.0 °F 78% 29.74 in 10.0 mi North 4.6 mph - N/A   Overcast
6:14 PM 68.0 °F 60.8 °F 78% 29.74 in 10.0 mi Calm Calm - N/A   Mostly Cloudy
6:34 PM 66.2 °F 57.2 °F 73% 29.75 in 10.0 mi NNE 6.9 mph - N/A   Overcast
6:54 PM 64.4 °F 57.2 °F 77% 29.75 in 10.0 mi Calm Calm - N/A   Overcast
7:14 PM 64.4 °F 57.2 °F 77% 29.76 in 10.0 mi Calm Calm - N/A   Overcast
7:35 PM 64.4 °F 57.2 °F 77% 29.76 in 10.0 mi Calm Calm - N/A   Overcast
7:54 PM 64.4 °F 57.2 °F 77% 29.76 in 10.0 mi Calm Calm - N/A   Overcast
8:14 PM 64.4 °F 57.2 °F 77% 29.77 in 10.0 mi ENE 4.6 mph - N/A   Overcast
8:34 PM 62.6 °F 57.2 °F 82% 29.78 in 10.0 mi Calm Calm - N/A   Overcast
8:54 PM 60.8 °F 55.4 °F 82% 29.78 in 10.0 mi Calm Calm - N/A   Overcast
9:54 PM 60.8 °F 55.4 °F 82% 29.79 in 10.0 mi Calm Calm - N/A   Overcast
10:14 PM 60.8 °F 55.4 °F 82% 29.80 in 10.0 mi Calm Calm - N/A   Overcast
10:34 PM 60.8 °F 55.4 °F 82% 29.80 in 4.0 mi East 3.5 mph - N/A   Drizzle
10:54 PM 60.8 °F 55.4 °F 82% 29.80 in 2.5 mi ENE 3.5 mph - N/A   Drizzle
11:14 PM 60.8 °F 55.4 °F 82% 29.81 in 3.0 mi East 4.6 mph - 0.01 in   Overcast
11:35 PM 60.8 °F 55.4 °F 82% 29.81 in 0.2 mi ENE 8.1 mph - 0.01 in   Light Drizzle
11:54 PM 59.0 °F 53.6 °F 82% 29.81 in 0.2 mi East 5.8 mph - 0.01 in   Light Drizzle